Home   Weather   Oxford   Past weeks

Flag for United Kingdom Past Weather in Oxford, England, United Kingdom — Yesterday and Last 2 Weeks

Now
72 °F

Partly sunny.


Feels Like: 77 °F
Forecast: 61 / 72 °F
Wind: 14 mph from Southwest

Location: Benson

Current Time: Aug 16, 2017 at 4:31:52 pm

Latest Report: Aug 16, 2017 at 3:50 pm


Visibility: N/A

Pressure: 30.04 "Hg

Humidity: 50%

Dew Point: 52 °F

Location of OxfordLocation

Past Weather in Oxford — Graph

°F

Oxford Temperature Yesterday

Maximum temperature yesterday: 72 °F (at 2:50 pm)
Minimum temperature yesterday: 52 °F (at 11:50 pm)
Average temperature yesterday: 62 °F

High & Low Weather Summary for the Past Weeks

 TemperatureHumidityPressure
High72 °F (Aug 15, 2:50 pm)100% (Aug 2, 3:50 pm)30.24 "Hg (Aug 2, 3:50 pm)
Low43 °F (Aug 11, 5:50 am)40% (Aug 13, 12:50 pm)29.65 "Hg (Aug 3, 4:50 am)
Average60 °F80%29.99 "Hg
* Reported Aug 1 2:50 pm — Aug 16 2:50 pm, Oxford. Weather by CustomWeather, © 2017

Note: Actual official high and low records may vary slightly from our data, if they occured in-between our weather recording intervals... More about our weather records

Advertising

Oxford Weather History for the Previous 24 Hours

Scroll right to see more
 ConditionsComfort  
Time TempWeatherWind HumidityBarometerVisibility
2:50 pm
Wed, Aug 16
70 °FPartly sunny.9 mph53%30.07 "HgN/A
1:50 pm68 °FBroken clouds.13 mph53%30.07 "HgN/A
12:50 pm66 °FOvercast.13 mph56%30.09 "HgN/A
11:50 am64 °FBroken clouds.9 mph68%30.09 "HgN/A
10:50 am63 °FScattered clouds.10 mph77%30.12 "HgN/A
9:50 am61 °FPartly sunny.9 mph77%30.12 "HgN/A
8:50 am57 °FBroken clouds.2 mph94%30.12 "HgN/A
7:50 am55 °FOvercast.3 mph94%30.09 "HgN/A
6:50 am50 °FPartly sunny.1 mph94%30.12 "HgN/A
5:50 am48 °FBroken clouds.3 mph94%30.09 "HgN/A
4:50 am48 °FPassing clouds.2 mph94%30.09 "HgN/A
3:50 am48 °FClear.2 mph94%30.09 "HgN/A
2:50 am46 °FClear.2 mph93%30.09 "HgN/A
1:50 am50 °FPassing clouds.2 mph94%30.09 "HgN/A
12:50 am52 °FClear.3 mph88%30.12 "Hg10 mi
11:50 pm
Tue, Aug 15
52 °FClear.5 mph82%30.09 "Hg10 mi
10:50 pm55 °FClear.6 mph72%30.09 "Hg10 mi
9:50 pm57 °FClear.2 mph72%30.09 "Hg10 mi
8:50 pm63 °FClear.7 mph56%30.07 "Hg10 mi
7:50 pm66 °FSunny.9 mph46%30.04 "Hg10 mi
6:50 pm68 °FSunny.10 mph49%30.01 "Hg10 mi
5:50 pm70 °FSunny.12 mph40%30.01 "Hg10 mi
4:50 pm72 °FSunny.13 mph44%30.01 "Hg10 mi
Weather by CustomWeather, © 2017

See weather overviewHow to use our weather pages